Weather History for Buffalo, WY

Change the Weather History Date:

Wednesday, September 18, 2013

  Actual Average Record
Temperature  
Mean Temperature 60 °F 57 °F  
Max Temperature 73 °F 70 °F 89 °F (1998)
Min Temperature 47 °F 44 °F 28 °F (2003)
Degree Days  
Heating Degree Days 5 9  
Month to date heating degree days 15 108  
Since 1 July heating degree days 16 173  
Cooling Degree Days 0 1  
Month to date cooling degree days 93 39  
Year to date cooling degree days 707 485  
Growing Degree Days 10 (Base 50)    
Moisture  
Dew Point 45 °F    
Average Humidity 57    
Maximum Humidity 93    
Minimum Humidity 20    
Precipitation  
Precipitation 0.27 in 0.04 in 0.32 in (2002)
Month to date precipitation 2.01 0.67  
Year to date precipitation 6.43 10.94  
Sea Level Pressure  
Sea Level Pressure 29.73 in    
Wind  
Wind Speed 12 mph (NNW)    
Max Wind Speed 33 mph    
Max Gust Speed 49 mph    
Visibility 9 miles    
Events Rain , Thunderstorm    
T = Trace of Precipitation, MM = Missing Value Source: NWS Daily Summary

Daily Weather History Graph

Daily Weather History Graph

Search for Another Location

Airport:

Trip Planner

Search our weather history database for the weather conditions in past years. The results will help you decide how hot, cold, wet, or windy it might be!

Date:

Astronomy

Sep. 18, 2013 Rise Set
Actual Time 6:49 AM MDT 7:11 PM MDT
Civil Twilight 6:20 AM MDT 7:40 PM MDT
Nautical Twilight 5:46 AM MDT 8:14 PM MDT
Astronomical Twilight 5:11 AM MDT 8:49 PM MDT
Moon 6:35 PM MDT (9/18) 5:54 AM MDT (9/18)
Length of Visible Light 13h 19m
Length of Day
12h 21m
Waxing Gibbous, 99% of the Moon is Illuminated
Sep 18
Waxing Gibbous
Sep 19
Full
Sep 26
Last Quarter
Oct 4
New
Oct 11
First Quarter

Hourly Weather History & Observations

Time (MDT) Temp. Dew Point Humidity Pressure Visibility Wind Dir Wind Speed Gust Speed Precip Events Conditions
12:31 AM 60.8 °F 51.8 °F 72% 29.81 in 10.0 mi North 4.6 mph - 0.00 in Rain , Thunderstorm Light Rain
12:49 AM 57.2 °F 51.8 °F 82% 29.80 in 10.0 mi North 21.9 mph 36.8 mph 0.01 in Rain Light Rain
12:53 AM 57.0 °F 51.1 °F 81% 29.64 in 10.0 mi North 20.7 mph 36.8 mph 0.01 in Rain Light Rain
1:27 AM 55.4 °F 51.8 °F 88% 29.86 in 9.0 mi NNW 15.0 mph 25.3 mph 0.05 in Rain , Thunderstorm Rain
1:42 AM 55.4 °F 51.8 °F 88% 29.88 in 5.0 mi North 11.5 mph 20.7 mph 0.11 in Rain Rain
1:53 AM 55.9 °F 52.0 °F 87% 29.69 in 6.0 mi North 6.9 mph - 0.14 in Rain Rain
2:53 AM 54.0 °F 52.0 °F 93% 29.60 in 10.0 mi ENE 8.1 mph - 0.03 in   Partly Cloudy
3:53 AM 54.0 °F 52.0 °F 93% 29.63 in 10.0 mi SE 8.1 mph - N/A   Partly Cloudy
4:53 AM 55.0 °F 51.1 °F 86% 29.62 in 10.0 mi ESE 8.1 mph - N/A   Overcast
5:53 AM 55.0 °F 50.0 °F 83% 29.60 in 10.0 mi South 9.2 mph - N/A   Clear
6:53 AM 61.0 °F 43.0 °F 52% 29.59 in 10.0 mi South 17.3 mph - N/A   Clear
7:53 AM 64.0 °F 41.0 °F 43% 29.59 in 10.0 mi SSW 5.8 mph - N/A   Clear
8:53 AM 69.1 °F 42.1 °F 38% 29.60 in 10.0 mi West 9.2 mph 26.5 mph N/A   Clear
9:53 AM 68.0 °F 42.1 °F 39% 29.62 in 10.0 mi North 8.1 mph - N/A   Clear
10:53 AM 70.0 °F 46.9 °F 44% 29.63 in 10.0 mi North 10.4 mph - N/A   Clear
11:53 AM 68.0 °F 48.0 °F 49% 29.64 in 10.0 mi NNW 10.4 mph 35.7 mph N/A   Clear
12:48 PM 64.4 °F 46.4 °F 52% 29.82 in 9.0 mi WNW 19.6 mph 23.0 mph N/A Thunderstorm Overcast
12:53 PM 59.0 °F 50.0 °F 72% 29.73 in 2.0 mi West 19.6 mph 27.6 mph 0.07 in Rain , Thunderstorm Heavy Thunderstorms and Rain
1:09 PM 60.8 °F 51.8 °F 72% 29.79 in 10.0 mi North 6.9 mph - 0.03 in Rain , Thunderstorm Light Rain
1:19 PM 62.6 °F 51.8 °F 68% 29.78 in 10.0 mi NNE 6.9 mph - 0.03 in   Scattered Clouds
1:53 PM 66.0 °F 50.0 °F 56% 29.64 in 10.0 mi East 6.9 mph - 0.03 in   Clear
2:53 PM 70.0 °F 50.0 °F 49% 29.65 in 10.0 mi SE 6.9 mph - N/A   Partly Cloudy
3:30 PM 73.4 °F 33.8 °F 23% 29.80 in 10.0 mi WSW 16.1 mph 27.6 mph N/A   Partly Cloudy
3:53 PM 72.0 °F 30.0 °F 21% 29.67 in 10.0 mi WSW 15.0 mph 21.9 mph N/A   Partly Cloudy
4:53 PM 71.1 °F 28.9 °F 21% 29.68 in 10.0 mi West 11.5 mph - N/A   Clear
5:53 PM 57.0 °F 42.1 °F 57% 29.77 in 10.0 mi North 29.9 mph 40.3 mph N/A   Clear
6:53 PM 52.0 °F 42.1 °F 69% 29.79 in 10.0 mi North 20.7 mph 35.7 mph N/A   Partly Cloudy
7:53 PM 52.0 °F 39.9 °F 63% 29.81 in 10.0 mi NW 23.0 mph 31.1 mph N/A   Partly Cloudy
8:53 PM 52.0 °F 39.0 °F 61% 29.83 in 10.0 mi NNW 23.0 mph 32.2 mph N/A   Mostly Cloudy
9:53 PM 50.0 °F 37.9 °F 63% 29.87 in 10.0 mi NW 15.0 mph 24.2 mph N/A   Clear
10:53 PM 48.9 °F 37.9 °F 66% 29.87 in 10.0 mi NW 13.8 mph 21.9 mph N/A   Clear
11:53 PM 48.9 °F 37.9 °F 66% 29.90 in 10.0 mi NNW 8.1 mph - N/A   Clear